www.pogodaiklimat.ru
ПОГОДА в Кухмо Каллиёки
Время
(UTC), дата
10 15.10
11 15.10
12 15.10
13 15.10
14 15.10
15 15.10
16 15.10
17 15.10
18 15.10
19 15.10
20 15.10
21 15.10
22 15.10
23 15.10
00 16.10
01 16.10
02 16.10
03 16.10
04 16.10
05 16.10
06 16.10
07 16.10
08 16.10
09 16.10
10 16.10
11 16.10
12 16.10
13 16.10
14 16.10
15 16.10
16 16.10
17 16.10
18 16.10
19 16.10
20 16.10
21 16.10
22 16.10
23 16.10
00 17.10
01 17.10
02 17.10
03 17.10
04 17.10
05 17.10
06 17.10
07 17.10
08 17.10
09 17.10
10 17.10
11 17.10
12 17.10
13 17.10
14 17.10
15 17.10
16 17.10
17 17.10
18 17.10
19 17.10
20 17.10
21 17.10
22 17.10
23 17.10
00 18.10
01 18.10
02 18.10
03 18.10
04 18.10
05 18.10
06 18.10
07 18.10
09 18.10
10 18.10
11 18.10
12 18.10
13 18.10
14 18.10
15 18.10
16 18.10
17 18.10
18 18.10
19 18.10
20 18.10
21 18.10
22 18.10
23 18.10
00 19.10
01 19.10
02 19.10
03 19.10
04 19.10
05 19.10
06 19.10
07 19.10
08 19.10
09 19.10
10 19.10
11 19.10
12 19.10
13 19.10
14 19.10
15 19.10
16 19.10
17 19.10
18 19.10
19 19.10
20 19.10
21 19.10
22 19.10
23 19.10
00 20.10
01 20.10
02 20.10
03 20.10
04 20.10
05 20.10
06 20.10
07 20.10
08 20.10
09 20.10
10 20.10
11 20.10
12 20.10
13 20.10
14 20.10
15 20.10
16 20.10
17 20.10
18 20.10
19 20.10
20 20.10
21 20.10
22 20.10
23 20.10
00 21.10
01 21.10
02 21.10
03 21.10
04 21.10
05 21.10
06 21.10
07 21.10
08 21.10
09 21.10
10 21.10
11 21.10
12 21.10
13 21.10
14 21.10
15 21.10
16 21.10
17 21.10
18 21.10
19 21.10
20 21.10
21 21.10
22 21.10
23 21.10
00 22.10
01 22.10
02 22.10
03 22.10
05 22.10
06 22.10
07 22.10
08 22.10
Ветер
(напр.,м/с)
Видим. Явления Облачность Т
(С)
Тd
(С)
f
(%)
Тe
(С)
Тes
(С)
Комфортность P
(гПа)
Po
(гПа)
Тmin
(С)
Tmax
(С)
R
(мм)
R24
(мм)
S
(см)
ЮЗ 1-3
{4}
50 км 9/9 100 м
[]
+1.0 -0.4 90 -1 -1 по сезону 1020.8 996.0
З 1-3
{4}
50 км 10/0 300 м
[]
+2.1 +0.1 87 0 +1 по сезону 1021.2 996.5
З 2-3
{3}
50 км 10/10 300 м
[]
+2.6 +0.1 84 -1 -1 по сезону 1021.5 996.8
З 2-4
{4}
13 км слаб. ливневой дождь 9/9 200 м
[]
+1.9 +1.0 94 -2 -2 по сезону 1021.9 997.2
ЮЗ 1-1
{3}
50 км 6/6 600 м
[]
+1.0 +0.3 95 -1 -1 по сезону 1022.2 997.4 0.1
З 1-1
{2}
35 км {ливн. осадки, морось} 1/0 600 м
[]
-0.3 -0.6 98 -3 -3 прохладно 1022.6 997.7
ЮЗ 1-1
{2}
19 км 1/0 600 м
[]
-1.6 -1.7 99 -4 -4 прохладно 1022.8 997.8
ЮЗ 1-1
{2}
50 км ясно -1.7 -1.7 100 -4 -4 прохладно 1022.9 997.8
ЮЗ 1-1
{2}
50 км {ливн. осадки, морось} ясно -2.3 -2.6 98 -5 -5 холодно 1023.1 998.0 -2.5 +2.9
Ю 1-2
{2}
50 км ясно -2.6 -3.0 97 -5 -5 холодно 1023.3 998.2
Ю 1-2
{3}
50 км ясно -2.9 -3.2 98 -5 -5 холодно 1023.4 998.3
Ю 1-2
{3}
50 км ясно -3.1 -3.5 97 -6 -6 холодно 1023.4 998.2
Ю 1-2
{3}
50 км ясно -3.0 -3.3 98 -5 -5 холодно 1023.5 998.3
Ю 2-3
{3}
50 км ясно -2.8 -3.1 98 -7 -7 холодно 1023.4 998.2
Ю 1-3
{3}
50 км 4/0 2000 м
[]
-2.9 -3.1 99 -5 -5 холодно 1023.1 998.0
Ю 2-4
{4}
50 км 10/0 2000 м
[]
-1.4 -1.8 97 -5 -5 холодно 1022.7 997.6
Ю 2-4
{4}
50 км 10/0 2000 м
[]
-1.0 -1.4 97 -5 -5 холодно 1022.5 997.5
Ю 3-5
{5}
50 км 9/9 300 м
[]
-0.6 -1.1 96 -6 -6 холодно 1022.3 997.4
Ю 2-5
{5}
50 км 10/4 1500 м
[]
-0.5 -1.0 96 -4 -4 прохладно 1021.6 996.7
Ю 2-5
{5}
50 км 10/0 1500 м
[]
-0.2 -0.7 96 -4 -4 прохладно 1021.4 996.5
ЮЗ 2-4
{5}
50 км 9/9 1000 м
[]
+0.1 -0.4 96 -4 -4 прохладно 1021.3 996.4 -3.5 +0.1 <0.5
ЮЗ 2-3
{5}
20 км слаб. ливневой снег 10/10 600 м
[]
+0.3 -0.3 96 -3 -3 прохладно 1021.4 996.5
ЮЗ 2-4
{5}
30 км слаб. ливневой снег 9/9 600 м
[]
+0.6 -0.1 95 -3 -3 прохладно 1021.2 996.4
ЮЗ 2-4
{4}
40 км слаб. ливневой дождь 9/0 1500 м
[]
+1.0 +0.2 94 -3 -2 прохладно 1021.1 996.3
ЮЗ 2-4
{4}
50 км ливневой дождь 9/0 1500 м
[]
+1.1 +0.3 94 -3 -2 прохладно 1020.8 996.0
ЮЗ 2-3
{4}
50 км 9/9 100 м
[]
+1.5 +0.5 93 -2 -2 по сезону 1020.5 995.8
ЮЗ 1-3
{4}
50 км {ливн. осадки, снег} 9/9 200 м
[]
+1.7 +0.4 91 -0 -0 по сезону 1020.2 995.5
Ю 1-2
{3}
50 км 10/10 200 м
[]
+1.8 +0.5 91 0 0 по сезону 1019.7 995.0
штиль 0-1
{2}
50 км 10/0 1000 м
[]
+1.4 +0.3 92 0 0 по сезону 1019.5 994.8
В 1-1
{1}
50 км 10/0 1500 м
[]
+0.9 +0.1 94 -1 -1 по сезону 1019.3 994.5
В 1-1
{1}
50 км 10/6 1000 м
[]
+0.4 -0.1 96 -2 -2 по сезону 1019.2 994.5
СВ 1-1
{1}
35 км 9/0 1000 м
[]
0.0 -0.2 99 -2 -2 по сезону 1019.0 994.2
В 1-1
{2}
27 км 9/0 1500 м
[]
+0.1 -0.2 98 -2 -2 по сезону 1018.9 994.1 -0.1 +1.8
В 1-1
{1}
24 км 9/0 1500 м
[]
0.0 -0.2 99 -2 -2 по сезону 1019.1 994.3
штиль 0-1
{1}
14 км 9/0 1500 м
[]
-0.5 -0.7 99 -2 -2 по сезону 1019.1 994.2
ЮВ 1-2
{2}
27 км 9/9 100 м
[]
-0.1 -0.2 99 -2 -2 по сезону 1019.1 994.3
СВ 1-1
{2}
25 км 9/9 50 м
[]
+0.1 -0.1 99 -2 -2 по сезону 1019.1 994.3
СВ 1-1
{2}
9000 м дымка 9/9 50 м
[]
+0.2 0.0 99 -2 -2 по сезону 1019.0 994.1
СВ 2-4
{4}
24 км 9/9 100 м
[]
+0.5 0.0 96 -3 -3 прохладно 1018.8 994.0
СВ 2-5
{5}
35 км 9/9 100 м
[]
+0.4 -0.3 95 -3 -3 прохладно 1018.7 993.9
СВ 2-3
{5}
50 км 9/9 200 м
[]
+0.5 -0.6 92 -3 -3 прохладно 1018.7 993.9
СВ 2-3
{5}
5000 м слаб. дождь {туман} 9/9 200 м
[]
+0.2 -0.5 95 -4 -4 прохладно 1018.7 993.9
СВ 2-3
{4}
17 км слаб. ливневой дождь 9/9 100 м
[]
-0.1 -0.6 96 -4 -4 прохладно 1018.6 993.8 0.1
В 2-5
{6}
50 км в посл. час морось 9/9 300 м
[]
0.0 -2.0 86 -4 -4 прохладно 1018.6 993.8
В 2-4
{5}
50 км {ливн. осадки, снег} 9/9 300 м
[]
-0.1 -2.0 87 -4 -4 прохладно 1018.9 994.0 -0.6 +0.6 <0.5
В 3-6
{6}
50 км 9/0 300 м
[]
+0.1 -2.5 83 -5 -4 холодно 1018.9 994.1
В 3-5
{5}
50 км 9/0 300 м
[]
+0.3 -2.4 82 -4 -4 прохладно 1019.3 994.5
В 3-6
{6}
35 км ливневой дождь 9/0 300 м
[]
+0.4 -2.2 83 -4 -4 прохладно 1019.2 994.4
В 3-7
{7}
50 км 9/9 300 м
[]
+0.6 -2.9 77 -4 -4 прохладно 1019.1 994.3
В 2-4
{7}
30 км ливневой дождь 9/9 300 м
[]
+0.5 -1.4 87 -3 -3 прохладно 1018.9 994.1
В 2-5
{6}
50 км {ливн. осадки, снег} 9/0 300 м
[]
+0.3 -2.9 79 -3 -3 прохладно 1018.6 993.8
В 3-5
{6}
23 км осадки 9/0 300 м
[]
-0.2 -2.5 84 -5 -5 холодно 1018.4 993.6
В 2-5
{6}
50 км 9/0 300 м
[]
-0.3 -2.8 83 -4 -4 прохладно 1018.5 993.7
В 2-5
{7}
50 км {ливн. осадки, снег} 9/0 300 м
[]
-0.6 -2.9 84 -4 -4 прохладно 1018.5 993.6
В 3-6
{6}
50 км 9/0 300 м
[]
-0.6 -2.9 84 -5 -5 холодно 1018.3 993.4
В 3-6
{7}
50 км 9/0 300 м
[]
-0.8 -2.8 86 -6 -6 холодно 1018.0 993.1
В 3-6
{6}
35 км {ливн. осадки, снег} 9/0 300 м
[]
-1.0 -2.7 88 -6 -6 холодно 1017.7 992.8 -1.0 +1.3
В 3-5
{7}
50 км в посл. час осадки 9/0 300 м
[]
-1.1 -2.9 88 -6 -6 холодно 1017.9 993.0
В 2-4
{5}
50 км 9/0 300 м
[]
-1.0 -2.8 88 -5 -5 холодно 1017.6 992.7
В 2-5
{6}
50 км {ливн. осадки, туман} 9/0 300 м
[]
-0.9 -2.6 88 -5 -5 холодно 1017.0 992.2
ЮВ 2-4
{5}
50 км 9/0 300 м
[]
-0.8 -2.4 89 -5 -5 холодно 1016.8 992.0
В 3-5
{5}
50 км 10/10 300 м
[]
-0.7 -2.2 90 -6 -6 холодно 1016.4 991.6
В 2-5
{5}
50 км {ливн. осадки, туман} 10/0 300 м
[]
-0.8 -2.5 88 -5 -5 холодно 1016.1 991.2
ЮВ 2-4
{6}
50 км 10/0 300 м
[]
-0.7 -2.3 89 -5 -5 холодно 1015.6 990.8
ЮВ 2-3
{4}
19 км осадки 10/0 300 м
[]
-0.5 -2.0 90 -4 -4 прохладно 1015.3 990.5
ЮВ 2-4
{5}
4100 м слаб. снег {туман} 10/10 200 м
[]
-0.6 -1.5 94 -4 -4 прохладно 1015.0 990.2 0.2
ЮВ 2-4
{4}
30 км слаб. снег 9/9 200 м
[]
-0.6 -1.5 94 -4 -4 прохладно 1014.7 990.0 0.1
ЮВ 2-3
{4}
10 км слаб. снег 10/0 1000 м
[]
-0.5 -1.3 94 -4 -4 прохладно 1014.5 989.7
ЮВ 2-5
{5}
6000 м слаб. снег {туман} 10/10 200 м
[]
-0.4 -1.1 95 -4 -4 прохладно 1014.3 989.5 -1.2 -0.4 0.1 <0.5
Ю 3-4
{5}
3100 м слаб. снег 10/10 100 м
[]
-0.3 -0.9 96 -5 -5 холодно 1014.1 989.4 0.3
Ю 2-4
{4}
13 км слаб. дождь со снегом 10/10 200 м
[]
+0.1 -0.4 96 -4 -4 прохладно 1014.0 989.3 0.3
Ю 3-5
{5}
17 км слаб. снег 10/10 200 м
[]
+0.3 -0.2 96 -5 -5 холодно 1013.7 989.0 0.3
Ю 2-5
{5}
7000 м дымка 10/10 100 м
[]
+0.3 0.0 98 -4 -4 прохладно 1013.4 988.7
Ю 2-4
{5}
5000 м дымка {снег, дождь} 10/10 50 м
[]
+0.4 +0.3 99 -3 -3 прохладно 1013.0 988.4 0.1
Ю 2-4
{5}
9000 м дымка 10/10 50 м
[]
+0.6 +0.4 99 -3 -3 прохладно 1012.9 988.3
Ю 2-5
{6}
7000 м в посл. час дождь 10/10 50 м
[]
+0.6 +0.5 99 -3 -3 прохладно 1012.7 988.1 0.1
Ю 2-4
{5}
4800 м ливневой дождь 10/0 50 м
[]
+0.7 +0.6 99 -3 -3 прохладно 1012.7 988.1
Ю 2-3
{4}
5000 м дымка 10/0 50 м
[]
+0.8 +0.8 100 -3 -3 прохладно 1012.6 988.0
Ю 2-4
{4}
3300 м дымка 10/0 50 м
[]
+1.1 +1.0 99 -3 -3 прохладно 1012.3 987.8
Ю 2-3
{4}
2100 м дымка {ливн. осадки, дождь} ?/? +1.2 +1.2 100 -3 -3 прохладно 1012.2 987.7 -0.4 +1.2
Ю 3-6
{6}
900 м туман ?/? +1.5 +1.5 100 -3 -3 прохладно 1011.9 987.3
Ю 2-5
{5}
800 м туман ?/? +1.8 +1.8 100 -2 -2 по сезону 1011.6 987.2
Ю 2-4
{5}
1200 м в посл. час туман 10/0 50 м
[]
+2.0 +2.0 100 -2 -2 по сезону 1011.5 987.0
Ю 2-5
{5}
1200 м дымка 10/0 50 м
[]
+2.1 +2.1 100 -1 -1 по сезону 1011.1 986.6
Ю 2-4
{5}
1300 м дымка ?/? +2.2 +2.2 100 -1 -1 по сезону 1010.7 986.3
Ю 2-3
{5}
1000 м дымка {туман} ?/? +2.3 +2.3 100 -1 -1 по сезону 1010.4 986.0
Ю 2-4
{5}
700 м туман ?/? +2.5 +2.5 100 -1 -1 по сезону 1009.7 985.3
Ю 2-4
{5}
1700 м морось ?/? +2.9 +2.9 100 -1 -1 по сезону 1009.4 985.0
Ю 2-4
{5}
4500 м ливневой дождь {морось} 10/10 50 м
[]
+3.2 +3.2 100 -0 -0 по сезону 1009.0 984.7 0.3
Ю 2-4
{4}
7000 м слаб. ливневой дождь 10/10 50 м
[]
+3.3 +3.3 100 0 0 по сезону 1008.9 984.6 0.4
Ю 2-5
{5}
6000 м дымка 10/10 50 м
[]
+3.6 +3.6 100 0 0 по сезону 1008.7 984.5 0.1
Ю 2-5
{5}
3700 м дымка {ливн. осадки, дождь} 10/10 50 м
[]
+3.9 +3.9 100 +1 +1 по сезону 1008.5 984.3 +1.2 +3.9 <0.5
Ю 2-3
{5}
6000 м дымка 10/0 50 м
[]
+4.0 +4.0 100 +1 +1 по сезону 1008.5 984.2
Ю 2-4
{4}
3700 м дымка 10/0 50 м
[]
+4.1 +4.1 100 +1 +1 по сезону 1008.2 984.0
Ю 2-5
{5}
8000 м дымка 10/10 50 м
[]
+4.6 +4.6 100 +2 +2 по сезону 1007.7 983.5
Ю 2-4
{5}
19 км осадки 10/0 50 м
[]
+4.8 +4.7 99 +2 +2 по сезону 1007.2 983.1
ЮВ 2-4
{4}
15 км морось 10/10 50 м
[]
+4.8 +4.7 99 +2 +2 по сезону 1006.3 982.2 0.5
ЮВ 2-4
{4}
50 км в посл. час дождь со снегом {морось} 10/10 50 м
[]
+5.0 +4.9 99 +2 +2 по сезону 1005.7 981.7 0.4
В 2-4
{4}
40 км 10/10 50 м
[]
+5.1 +4.9 99 +2 +2 по сезону 1004.4 980.3
В 2-4
{5}
4800 м дождь 10/10 50 м
[]
+4.9 +4.8 99 +2 +2 по сезону 1003.4 979.4 0.5
В 1-2
{3}
11 км слаб. дождь {туман} 10/10 100 м
[]
+4.7 +4.6 99 +3 +3 по сезону 1002.7 978.7 3
СВ 1-2
{2}
4800 м слаб. дождь 10/10 50 м
[]
+4.6 +4.6 100 +3 +3 по сезону 1002.1 978.1 1
С 1-2
{2}
8000 м дождь 10/10 <50 м
[]
+4.7 +4.6 99 +3 +3 по сезону 1001.8 977.8 2
штиль 0-1
{2}
6000 м ливневой дождь 10/0 100 м
[]
+4.6 +4.6 100 +3 +3 по сезону 1001.5 977.5 +3.8 +5.3 0.9
С 1-1
{2}
3100 м слаб. ливневой дождь 10/0 100 м
[]
+4.6 +4.6 100 +3 +3 по сезону 1001.7 977.7 0.4
С 1-3
{3}
4700 м морось 10/10 <50 м
[]
+4.5 +4.5 100 +3 +3 по сезону 1002.2 978.2 0.9
СВ 2-4
{4}
2000 м ливневой дождь 10/10 <50 м
[]
+4.4 +4.4 100 +1 +1 по сезону 1002.7 978.6 0.6
СВ 2-4
{5}
4900 м морось 10/10 100 м
[]
+4.1 +4.0 99 +1 +1 по сезону 1003.3 979.2 0.7
СВ 3-6
{8}
3900 м дождь 9/9 100 м
[]
+2.2 +1.9 98 -2 -2 по сезону 1004.4 980.1 0.9
СВ 3-6
{8}
1300 м слаб. снег 10/10 50 м
[]
+0.3 +0.1 99 -5 -5 холодно 1005.6 981.1 2
СВ 3-7
{8}
2900 м слаб. снег 10/10 100 м
[]
+0.2 +0.1 99 -5 -5 холодно 1006.2 981.7 2
СВ 4-9
{9}
2500 м слаб. дождь со снегом 10/10 100 м
[]
+0.2 0.0 99 -5 -5 холодно 1006.7 982.2 0.8
С 3-7
{8}
1300 м переохл. дождь (гололёд) {снег} 10/10 100 м
[]
+0.1 0.0 99 -5 -5 холодно 1008.3 983.8 0.5
С 4-8
{8}
800 м снег 10/10 100 м
[]
0.0 0.0 100 -6 -6 холодно 1009.8 985.2 3
С 4-8
{11}
1500 м слаб. снег ?/? -0.1 -0.1 100 -6 -6 холодно 1011.1 986.5 2
С 3-6
{10}
3500 м сильн. снег {дождь} 9/9 200 м
[]
-0.2 -0.2 100 -5 -5 холодно 1012.7 988.0 -0.2 +4.7 0.3 8
С 3-9
{9}
9000 м слаб. снег 9/9 300 м
[]
-0.2 -0.4 99 -5 -5 холодно 1014.2 989.5 0.1
С 4-8
{8}
24 км снежные зёрна 10/10 300 м
[]
-0.3 -0.7 97 -6 -6 холодно 1015.5 990.7
СВ 3-6
{8}
40 км в посл. час переохл. осадки (гололёд) 10/10 300 м
[]
-0.3 -0.9 96 -5 -5 холодно 1016.8 992.0
С 2-4
{6}
45 км в посл. час дождь 10/10 300 м
[]
-0.2 -0.8 96 -4 -4 прохладно 1017.8 993.0
СВ 1-3
{6}
40 км 9/9 300 м
[]
+0.1 -0.9 93 -2 -2 по сезону 1018.2 993.4
СВ 2-5
{5}
50 км {ливн. осадки, снег} 9/9 300 м
[]
0.0 -1.0 93 -4 -4 прохладно 1018.9 994.0
СВ 2-3
{4}
45 км 10/10 300 м
[]
-0.3 -1.2 94 -4 -4 прохладно 1019.3 994.4
СВ 1-3
{4}
40 км 10/10 300 м
[]
-0.6 -1.1 96 -3 -3 прохладно 1019.3 994.5
СВ 2-5
{5}
11 км 10/10 200 м
[]
-0.9 -1.4 96 -5 -5 холодно 1019.4 994.5
СВ 1-3
{4}
50 км в посл. час дождь 10/10 200 м
[]
-1.2 -1.7 96 -4 -4 прохладно 1019.5 994.5
В 2-4
{4}
50 км 9/9 200 м
[]
-1.6 -2.0 97 -6 -6 холодно 1019.5 994.5
В 2-4
{4}
30 км слаб. ливневой снег 10/10 300 м
[]
-1.5 -1.9 97 -6 -6 холодно 1019.3 994.3 -1.6 +0.3
В 1-2
{5}
27 км ливневой дождь 10/10 300 м
[]
-1.2 -1.6 97 -4 -4 прохладно 1018.4 993.5
В 1-3
{4}
28 км 10/10 200 м
[]
-1.3 -1.7 97 -4 -4 прохладно 1017.6 992.7
В 2-5
{5}
29 км {ливн. осадки, туман} 10/10 200 м
[]
-1.2 -1.7 96 -5 -5 холодно 1017.2 992.3
В 1-3
{4}
35 км в посл. час осадки 9/1 100 м
[]
-1.6 -2.0 97 -4 -4 прохладно 1016.6 991.7
В 2-3
{4}
40 км 10/10 100 м
[]
-1.5 -1.7 99 -6 -6 холодно 1015.4 990.5
В 1-2
{4}
29 км {ливн. осадки, снег} 10/0 100 м
[]
-1.4 -1.6 99 -4 -4 прохладно 1014.7 989.8
СВ 1-2
{3}
35 км 10/10 100 м
[]
-1.3 -1.5 99 -4 -4 прохладно 1013.8 989.0
СВ 1-2
{3}
2000 м слаб. дождь со снегом 10/10 50 м
[]
-1.4 -1.6 99 -4 -4 прохладно 1013.3 988.5 0.1
СВ 2-3
{3}
2500 м переохл. дождь (гололёд) {снег} ?/? -1.5 -1.7 99 -6 -6 холодно 1012.9 988.1 0.3
СВ 1-2
{3}
2100 м слаб. снег 10/10 50 м
[]
-1.5 -1.7 99 -4 -4 прохладно 1012.6 987.8 0.2
С 1-2
{2}
5000 м слаб. дождь со снегом 10/10 50 м
[]
-1.4 -1.7 98 -4 -4 прохладно 1012.5 987.7 0.1
штиль 0-1
{2}
9000 м в посл. час переохл. осадки (гололёд) 10/10 50 м
[]
-1.3 -1.6 98 -3 -3 прохладно 1012.5 987.7 -1.7 -1.2 2
С 1-2
{3}
20 км 9/9 50 м
[]
-0.7 -1.1 97 -3 -3 прохладно 1012.6 987.9
СЗ 1-2
{2}
11 км 10/10 50 м
[]
-0.4 -0.8 97 -3 -3 прохладно 1012.7 988.0
СЗ 1-4
{4}
50 км 10/10 100 м
[]
-0.2 -0.9 95 -2 -2 по сезону 1013.3 988.6
З 2-3
{5}
50 км 9/9 100 м
[]
-0.3 -1.0 95 -4 -4 прохладно 1013.9 989.1
З 2-4
{4}
40 км 9/9 200 м
[]
-0.1 -1.0 94 -4 -4 прохладно 1014.4 989.7
З 2-3
{4}
50 км 10/10 200 м
[]
-0.2 -0.9 95 -4 -4 прохладно 1014.8 990.1
З 2-3
{4}
50 км 9/9 200 м
[]
-0.5 -1.2 95 -4 -4 прохладно 1015.0 990.3
З 2-5
{5}
40 км 9/9 600 м
[]
-0.8 -1.6 94 -5 -5 холодно 1015.6 990.8
З 3-5
{5}
15 км туман на расстоянии 9/9 600 м
[]
-1.5 -2.2 95 -7 -7 холодно 1015.8 990.9
З 2-4
{5}
4000 м слаб. ливневой снег 9/9 300 м
[]
-1.7 -2.1 97 -6 -6 холодно 1016.1 991.2
З 2-3
{4}
50 км в посл. час снег 1/0 200 м
[]
-2.8 -3.3 96 -7 -7 холодно 1016.5 991.5
З 2-3
{3}
45 км {ливн. осадки, снег} ясно -3.4 -3.8 97 -8 -8 очень
холодно
1016.3 991.2 -3.5 0.0
Ю 2-4
{4}
40 км 9/9 600 м
[]
-2.7 -3.0 98 -7 -7 холодно 1015.6 990.6
ЮЗ 2-4
{4}
45 км 9/9 300 м
[]
-2.2 -2.6 97 -6 -6 холодно 1015.3 990.3
ЮЗ 2-4
{5}
50 км в посл. час снег {ливн. осадки} 9/9 200 м
[]
-2.0 -2.3 98 -6 -6 холодно 1015.1 990.2
ЮЗ 2-4
{4}
50 км 9/9 100 м
[]
-1.5 -1.8 98 -6 -6 холодно 1015.0 990.1
ЮЗ 3-5
{5}
50 км в посл. час осадки 9/9 100 м
[]
-1.1 -1.5 97 -6 -6 холодно 1014.3 989.5
ЮЗ 2-4
{5}
35 км {ливн. осадки, снег} 9/9 100 м
[]
-1.0 -1.3 98 -5 -5 холодно 1014.0 989.2
ЮЗ 2-4
{5}
29 км 9/9 100 м
[]
-0.8 -1.1 98 -5 -5 холодно 1013.1 988.4
ЮЗ 3-5
{6}
3100 м слаб. снег 9/9 100 м
[]
-0.8 -1.1 98 -6 -6 холодно 1012.3 987.5
Ю 2-4
{5}
30 км в посл. час переохл. осадки (гололёд) 9/0 100 м
[]
-0.7 -0.9 99 -5 -5 холодно 1011.1 986.4 0.1
Ю 3-6
{7}
6000 м осадки 9/0 50 м
[]
-0.3 -0.5 99 -5 -5 холодно 1008.9 984.3
Ю 3-6
{7}
2900 м слаб. снег 9/9 50 м
[]
-0.1 -0.2 99 -5 -5 холодно 1007.7 983.1 -3.7 -0.1 0.3 6
Ю 4-7
{8}
7000 м в посл. час морось 9/0 50 м
[]
+0.2 +0.1 99 -5 -5 холодно 1006.4 981.9 0.2
Ю 4-9
{9}
5000 м слаб. снег 9/9 50 м
[]
+0.4 +0.2 99 -5 -5 холодно 1005.0 980.5 0.3
Местоположение метеостанции Кухмо Каллиёки (Финляндия): широта 64.30 долгота 30.17 высота над уровнем моря 197 м.
В архиве по умолчанию представлена погода в Кухмо Каллиёки за последнюю неделю. Архивные данные за месяц целиком и за предыдущие месяцы, начиная с января 2011 года, Вы можете получить, выбрав интересующий диапазон дат из раскрывающегося списка и нажав кнопку "Найти!".
*Определитесь, кто Вы:
Внимание! Время в таблицах - всемирное. Для получения местного времени необходимо прибавить поправку, которая равна 1 ч.
Смотрите также архив погоды в соседних городах и на ближайших метеорологических станциях:
Партнеры нашего сайта:      
Пояснения к столбцам:
  • Ветер - указаны скорость ветра в м/с - средняя за 10 мин, порывы в срок и между сроками (в фигурных скобках) и направление, откуда дует ветер: С - северный,
  • СВ - северо-восточный, В - восточный, ЮВ - юго-восточный, Ю - южный, ЮЗ - юго-западный, З - западный, СЗ - северо-западный.
  • Видимость - горизонтальная дальность видимости в метрах или километрах. При видимости от 1 до 10 км при отсутствии осадков обычно наблюдается дымка, при ухудшении видимости до 1 км и менее - туман. В сухую погоду видимость может ухудшаться дымом, пылью или мглою.
  • Явления - указаны атмосферные явления, наблюдавшиеся в срок или в последний час перед сроком; фигурными скобками обозначены явления, наблюдавшиеся между сроками (за 1-3 часа до срока); квадратными скобками обозначены град или гололедные отложения с указанием их диаметра в мм.
  • Облачность - указаны через наклонную черту общая и нижняя облачность в баллах и высота нижней границы облаков в метрах; квадратными скобками обозначены формы облаков: Ci - перистые, Cs - перисто-слоистые, Cc - перисто-кучевые, Ac - высококучевые, As - высокослоистые, Sc - слоисто-кучевые, Ns - слоисто-дождевые, Cu - кучевые, Cb - кучево-дождевые. Подробнее классификацию облаков см. в Атласе облаков (PDF).
  • T - Температура воздуха - температура, измеренная на высоте 2 м над землей.
  • Td - Температура точки росы - температура, при понижении до которой содержащийся в воздухе водяной пар достигнет насыщения.
  • f - Относительная влажность воздуха - влажноcть воздуха, измеренная на высоте 2 м над землей.
  • Te - Эффективная температура - температура, которую ощущает одетый по сезону человек в тени. Характеристика душности погоды. При расчете учитывается влияние влажности воздуха и скорости ветра на теплоощущения человека.
  • Tes - Эффективная температура на солнце - температура, которую ощущает человек, с поправкой на солнечный нагрев. Характеристика знойности погоды. Зависит от высоты солнца над горизонтом, облачности и скорости ветра. Ночью, в пасмурную погоду, а также при ветре 12 м/с и более поправка равна нулю.
  • P - Атмосферное давление - приведенное к уровню моря атмосферное давление.
  • Po - Атмосферное давление - измеренное на уровне метеостанции атмосферное давление.
  • Tmin - Минимальная температура - минимум температуры воздуха на высоте 2 м над землей.
  • Tmax - Максимальная температура - максимум температуры воздуха на высоте 2 м над землей.
  • R - Количество осадков - Количество выпавших осадков за период времени, мм. При наведении курсора мыши на число - период времени, за который выпало указанное количество осадков.
  • R24 - Количество осадков - Количество выпавших осадков за 24 часа, мм.
  • S - Снежный покров - Высота снежного покрова, см. При наведении курсора мыши на число - состояние снежного покрова и степень покрытия местности в баллах.